Weather History for Russellville, AR

Change the Weather History Date:

Monday, December 31, 2012

  Actual Average (KHOT) Record (KHOT)
Temperature  
Mean Temperature 36 °F -  
Max Temperature 39 °F 48 °F 79 °F (1951)
Min Temperature 34 °F 30 °F 6 °F (1983)
Degree Days  
Heating Degree Days 28    
Moisture  
Dew Point 35 °F    
Average Humidity 92    
Maximum Humidity 100    
Minimum Humidity 73    
Precipitation  
Precipitation 0.65 in - - ()
Sea Level Pressure  
Sea Level Pressure 30.09 in    
Wind  
Wind Speed 2 mph (NE)    
Max Wind Speed 7 mph    
Max Gust Speed -    
Visibility 4 miles    
Events Rain    
Averages and records for this station are not official NWS values.
T = Trace of Precipitation, MM = Missing Value Source: NWS Daily Summary

Daily Weather History Graph

Daily Weather History Graph

Search for Another Location

Airport:

Trip Planner

Search our weather history database for the weather conditions in past years. The results will help you decide how hot, cold, wet, or windy it might be!

Date:

Astronomy

Dec. 31, 2012 Rise Set
Actual Time 7:20 AM CST 5:10 PM CST
Civil Twilight 6:52 AM CST 5:38 PM CST
Nautical Twilight 6:21 AM CST 6:10 PM CST
Astronomical Twilight 5:50 AM CST 6:41 PM CST
Moon 8:33 PM CST 9:10 AM CST
Length of Visible Light 10h 45m
Length of Day
9h 49m
Waning Gibbous, 90% of the Moon is Illuminated
Dec 31
Waning Gibbous
Jan 4
Last Quarter
Jan 11
New
Jan 18
First Quarter
Jan 26
Full

Hourly Weather History & Observations

Time (CST) Temp. Windchill Dew Point Humidity Pressure Visibility Wind Dir Wind Speed Gust Speed Precip Events Conditions
12:53 AM 36.0 °F - 28.0 °F 73% 30.27 in 10.0 mi Calm Calm - N/A   Overcast
1:53 AM 34.0 °F - 33.1 °F 96% 30.30 in 4.0 mi Calm Calm - 0.02 in   Overcast
2:53 AM 35.1 °F - 32.0 °F 89% 30.30 in 4.0 mi Calm Calm - 0.01 in   Overcast
3:53 AM 35.1 °F - 33.1 °F 92% 30.26 in 4.0 mi Calm Calm - N/A   Overcast
4:53 AM 35.1 °F - 32.0 °F 89% 30.25 in 7.0 mi Calm Calm - N/A   Overcast
5:53 AM 36.0 °F - 30.9 °F 82% 30.25 in 8.0 mi Calm Calm - 0.00 in   Overcast
6:53 AM 35.1 °F 31.0 °F 30.9 °F 85% 30.22 in 7.0 mi East 4.6 mph - 0.03 in   Overcast
7:53 AM 36.0 °F 32.1 °F 32.0 °F 86% 30.20 in 6.0 mi Variable 4.6 mph - 0.01 in   Overcast
8:53 AM 35.1 °F 30.1 °F 32.0 °F 89% 30.19 in 3.0 mi East 5.8 mph - 0.05 in Rain Rain
9:20 AM 35.6 °F 32.8 °F 33.8 °F 93% 30.21 in 2.5 mi Variable 3.5 mph - 0.06 in Rain Rain
9:53 AM 36.0 °F - 33.1 °F 89% 30.21 in 3.0 mi Calm Calm - 0.14 in Rain Rain
10:22 AM 35.6 °F 30.7 °F 33.8 °F 93% 30.21 in 2.5 mi Variable 5.8 mph - 0.03 in Rain Rain
10:34 AM 35.6 °F 29.9 °F 33.8 °F 93% 30.20 in 3.0 mi East 6.9 mph - 0.04 in   Overcast
10:44 AM 35.6 °F 29.9 °F 33.8 °F 93% 30.17 in 2.5 mi Variable 6.9 mph - 0.05 in Rain Rain
10:53 AM 36.0 °F 32.1 °F 34.0 °F 93% 30.17 in 3.0 mi East 4.6 mph - 0.06 in   Overcast
11:53 AM 36.0 °F 31.1 °F 34.0 °F 93% 30.12 in 3.0 mi Variable 5.8 mph - 0.02 in   Overcast
12:46 PM 37.4 °F 33.8 °F 35.6 °F 93% 30.07 in 3.0 mi ESE 4.6 mph - 0.05 in Rain Rain
12:53 PM 37.0 °F 34.5 °F 35.1 °F 93% 30.06 in 3.0 mi East 3.5 mph - 0.05 in Rain Light Rain
1:53 PM 37.0 °F 34.5 °F 35.1 °F 93% 30.02 in 2.0 mi Variable 3.5 mph - 0.04 in Rain Rain
2:04 PM 37.4 °F 33.8 °F 35.6 °F 93% 30.01 in 1.8 mi East 4.6 mph - 0.01 in Rain Light Rain
2:24 PM 37.4 °F 32.8 °F 35.6 °F 93% 30.01 in 1.5 mi ENE 5.8 mph - 0.03 in Rain Light Rain
2:31 PM 37.4 °F 33.8 °F 35.6 °F 93% 30.01 in 1.8 mi ENE 4.6 mph - 0.04 in Rain Rain
2:41 PM 37.4 °F 33.8 °F 35.6 °F 93% 30.01 in 2.0 mi ENE 4.6 mph - 0.05 in Rain Light Rain
2:51 PM 37.4 °F 34.9 °F 35.6 °F 93% 30.03 in 2.5 mi NNW 3.5 mph - 0.07 in Rain Rain
2:53 PM 37.9 °F 34.4 °F 35.1 °F 89% 30.02 in 2.0 mi NNW 4.6 mph - 0.07 in Rain Rain
3:02 PM 37.4 °F 33.8 °F 35.6 °F 93% 30.04 in 1.8 mi NW 4.6 mph - 0.02 in Rain Light Rain
3:09 PM 37.4 °F 33.8 °F 35.6 °F 93% 30.04 in 2.0 mi NW 4.6 mph - 0.03 in Rain Rain
3:21 PM 37.4 °F 32.8 °F 35.6 °F 93% 30.04 in 3.0 mi North 5.8 mph - 0.03 in Rain Light Rain
3:35 PM 37.4 °F 32.1 °F 35.6 °F 93% 30.05 in 1.8 mi NNW 6.9 mph - 0.05 in Rain Rain
3:53 PM 37.9 °F 33.5 °F 36.0 °F 93% 30.06 in 2.0 mi NNW 5.8 mph - 0.09 in Rain Heavy Rain
4:00 PM 37.4 °F 33.8 °F 35.6 °F 93% 30.08 in 1.5 mi NW 4.6 mph - 0.01 in Rain Rain
4:08 PM 37.4 °F 33.8 °F 35.6 °F 93% 30.08 in 1.8 mi NW 4.6 mph - 0.02 in Rain Light Rain
4:19 PM 37.4 °F - 35.6 °F 93% 30.07 in 1.5 mi Calm Calm - 0.03 in Rain Rain
4:36 PM 37.4 °F 34.9 °F 35.6 °F 93% 30.05 in 2.0 mi East 3.5 mph - 0.05 in Rain Light Rain
4:53 PM 37.9 °F - 36.0 °F 93% 30.04 in 2.0 mi Calm Calm - 0.05 in   Overcast
5:06 PM 37.4 °F - 35.6 °F 93% 30.04 in 4.0 mi Calm Calm - N/A   Overcast
5:30 PM 37.4 °F - 35.6 °F 93% 30.04 in 2.5 mi Calm Calm - 0.01 in   Overcast
5:38 PM 37.4 °F - 35.6 °F 93% 30.03 in 4.0 mi Calm Calm - 0.01 in   Overcast
5:46 PM 37.4 °F - 35.6 °F 93% 30.03 in 4.0 mi Calm Calm - 0.01 in   Overcast
5:53 PM 37.9 °F - 36.0 °F 93% 30.03 in 4.0 mi Calm Calm - 0.01 in   Overcast
6:28 PM 37.4 °F - 37.4 °F 100% 30.03 in 5.0 mi Calm Calm - N/A   Overcast
6:43 PM 37.4 °F 34.9 °F 35.6 °F 93% 30.04 in 5.0 mi Variable 3.5 mph - N/A   Overcast
6:53 PM 37.9 °F 34.4 °F 36.0 °F 93% 30.03 in 5.0 mi SE 4.6 mph - N/A   Overcast
7:29 PM 37.4 °F - 35.6 °F 93% 30.02 in 5.0 mi Calm Calm - N/A   Overcast
7:53 PM 37.9 °F - 37.0 °F 97% 30.02 in 5.0 mi Calm Calm - N/A   Overcast
8:53 PM 39.0 °F - 37.0 °F 93% 30.03 in 5.0 mi Calm Calm - N/A   Overcast
9:18 PM 37.4 °F - 37.4 °F 100% 30.04 in 4.0 mi Calm Calm - N/A   Overcast
9:53 PM 39.0 °F - 36.0 °F 89% 30.04 in 5.0 mi Calm Calm - N/A   Overcast
10:53 PM 39.0 °F - 37.0 °F 93% 30.05 in 4.0 mi Calm Calm - N/A   Overcast
11:08 PM 37.4 °F - 37.4 °F 100% 30.05 in 2.5 mi Calm Calm - N/A   Overcast
11:16 PM 39.2 °F - 37.4 °F 93% 30.06 in 4.0 mi Calm Calm - N/A   Overcast
11:38 PM 39.2 °F - 37.4 °F 93% 30.06 in 2.0 mi Calm Calm - N/A   Overcast
11:53 PM 39.0 °F - 37.0 °F 93% 30.06 in 2.0 mi Calm Calm - N/A   Overcast